NOAA NWS Hourly Roundups by Site

Regional Weather Roundup for Seattle, WA

To Select Another Site Choose from List

Select Site:  

000
ASUS46 KSEW 160020
RWRWA

WASHINGTON REGIONAL WEATHER ROUNDUP
NATIONAL WEATHER SERVICE SEATTLE WA
500 PM PDT MON JUL 15 2024

NOTE:"FAIR" INDICATES FEW OR NO CLOUDS BELOW 12,000 FEET WITH NO
SIGNIFICANT WEATHER AND/OR OBSTRUCTIONS TO VISIBILITY.

WAZ507-509-555>559-160100-
SEATTLE, TACOMA, EVERETT, AND VICINITY

CITY           SKY/WX    TMP DP  RH WIND       PRES   REMARKS
EVERETT        SUNNY     76  56  49 W6        30.10F TC  24
6HR MIN TEMP:  62; 6HR MAX TEMP:  77;

BOEING FIELD   SUNNY     79  54  41 NW6       30.07F TC  26
6HR MIN TEMP:  63; 6HR MAX TEMP:  80;

RENTON         SUNNY     78  55  44 N3        30.07F TC  26
6HR MIN TEMP:  63; 6HR MAX TEMP:  78;

SEATAC AIRPORT MOSUNNY   76  53  44 W8        30.08F TC  24
6HR MIN TEMP:  60; 6HR MAX TEMP:  78;

JBLM-MCCHORD   SUNNY     79  55  42 N7        30.07F TC  26
6HR MIN TEMP:  62; 6HR MAX TEMP:  80;

PUYALLUP       SUNNY     79  52  38 CALM      30.08F TC  26
BREMERTON      SUNNY     81  57  43 VRB5      30.08F TC  27
6HR MIN TEMP:  60; 6HR MAX TEMP:  83;

JBLM-FT LEWIS  SUNNY     80  54  40 CALM      30.05F TC  27
6HR MIN TEMP:  62; 6HR MAX TEMP:  81;

TACOMA NARROWS SUNNY     76  56  49 SE5       30.08F TC  24
6HR MIN TEMP:  60; 6HR MAX TEMP:  79;

$$

WAZ001-503-506-510-514-515-160100-
NORTH INTERIOR

CITY           SKY/WX    TMP DP  RH WIND       PRES   REMARKS
BELLINGHAM     SUNNY     70  57  63 S7        30.07F TC  21
6HR MIN TEMP:  61; 6HR MAX TEMP:  71;

FRIDAY HARBOR  SUNNY     72  55  55 VRB6      30.09F TC  22
6HR MIN TEMP:  62; 6HR MAX TEMP:  72;

EASTSOUND      SUNNY     72  57  60 S8        30.06F TC  22
PORT ANGELES   SUNNY     68  55  63 NW7       30.10F TC  20
6HR MIN TEMP:  59; 6HR MAX TEMP:  70;

EDIZ HOOK      SUNNY     59  55  85 NW15      30.09F TC  15
6HR MIN TEMP:  58; 6HR MAX TEMP:  62;

PORT TOWNSEND  SUNNY     70  57  64 SW6       30.07F TC  21
NAS WHIDBEY    MOSUNNY   63  56  78 NW5       30.10F TC  17
6HR MIN TEMP:  57; 6HR MAX TEMP:  63;

ARLINGTON      NOT AVBL
BURLINGTON     SUNNY     73  66  78 CALM      30.08F TC  23
$$

WAZ020-022-039-040-504-511-512-160100-
SOUTHWEST INTERIOR

CITY           SKY/WX    TMP DP  RH WIND       PRES   REMARKS
SHELTON        SUNNY     79  57  46 SW8       30.05F TC  26
6HR MIN TEMP:  59; 6HR MAX TEMP:  79;

OLYMPIA        SUNNY     81  58  45 VRB3      30.07F TC  27
6HR MIN TEMP:  61; 6HR MAX TEMP:  82;

CHEHALIS       SUNNY     79  55  44 VRB3      30.06F TC  26
KELSO          MOSUNNY   80  61  52 VRB6      30.04F TC  27
6HR MIN TEMP:  63; 6HR MAX TEMP:  81;

VANCOUVER      MOSUNNY   84  55  36 NW8       30.02F TC  29
6HR MIN TEMP:  69; 6HR MAX TEMP:  85;

SCAPPOOSE, OR  SUNNY    N/A N/A N/A N9        30.00F
PORTLAND, OR   MOSUNNY   85  56  37 N7        30.01F TC  29
6HR MIN TEMP:  70; 6HR MAX TEMP:  86;

$$

WAZ021-516-517-160100-
WASHINGTON COAST

CITY           SKY/WX    TMP DP  RH WIND       PRES   REMARKS
FORKS          SUNNY     64  56  75 W12       30.12F TC  18
6HR MIN TEMP:  60; 6HR MAX TEMP:  66;

HOQUIAM        SUNNY     63  56  78 W16       30.11F TC  17
6HR MIN TEMP:  58; 6HR MAX TEMP:  65;

ASTORIA, OR    SUNNY     67  56  67 NW13      30.09F TC  19
6HR MIN TEMP:  62; 6HR MAX TEMP:  69;

$$

WAZ019-023-024-040-567>569-160100-
CASCADE MOUNTAINS AND COLUMBIA GORGE

CITY           SKY/WX    TMP DP  RH WIND       PRES   REMARKS
STAMPEDE PASS  SUNNY     71  51  49 MISG      30.17S TC  22
6HR MIN TEMP:  64; 6HR MAX TEMP:  73;

TROUTDALE, OR  MOSUNNY   85  56  37 W5        30.01F TC  29
6HR MIN TEMP:  70; 6HR MAX TEMP:  87;

HOOD RIVER, OR MOSUNNY   86  41  20 N3        29.95F TC  30
THE DALLES, OR MOSUNNY   90  44  20 NW23G31   29.89F TC  32
6HR MIN TEMP:  81; 6HR MAX TEMP:  92;

$$

WAZ026-027-041>044-520-521-160100-
EAST SLOPES

CITY           SKY/WX    TMP DP  RH WIND       PRES   REMARKS
OMAK           SUNNY     99  45  15 SE13      29.86F HX  95  TC  37
6HR MIN TEMP:  92; 6HR MAX TEMP: 100;

WENATCHEE      SUNNY     95  45  17 S9        29.86F HX  91  TC  35
6HR MIN TEMP:  84; 6HR MAX TEMP:  96;

ELLENSBURG     SUNNY     92  42  17 NW25G36   29.94S TC  33
6HR MIN TEMP:  86; 6HR MAX TEMP:  96;

YAKIMA         SUNNY     98  39  13 CALM      29.88F HX  93  TC  37
6HR MIN TEMP:  87; 6HR MAX TEMP:  98;

SUNNYSIDE ARPT SUNNY     95  51  22 CALM      29.86F HX  92  TC  35
6HR MIN TEMP:  83; 6HR MAX TEMP:  96;

YAKIMA TC      FAIR      98  32  10 W8        29.85F HX  92  TC  36
6HR MIN TEMP:  90; 6HR MAX TEMP:  99;

$$

WAZ028-034-035-160100-
COLUMBIA BASIN

CITY           SKY/WX    TMP DP  RH WIND       PRES   REMARKS
EPHRATA        SUNNY     94  45  18 SW9G20    29.88F HX  90  TC  34
6HR MIN TEMP:  87; 6HR MAX TEMP:  95;

MOSES LAKE     SUNNY     94  48  20 S9        29.90F HX  90  TC  34
6HR MIN TEMP:  85; 6HR MAX TEMP:  96;

PASCO          SUNNY    101  48  16 CALM      29.85F HX  97  TC  38
6HR MIN TEMP:  89; 6HR MAX TEMP: 101;

RICHLAND ARPT  SUNNY    101  34  10 SW3       29.85F HX  95  TC  38
6HR MIN TEMP:  89; 6HR MAX TEMP: 101;

HERMISTON, OR  SUNNY     98  34  10 W10       29.87F HX  92  TC  37
6HR MIN TEMP:  88; 6HR MAX TEMP:  99;

$$

WAZ036>038-160100-
NORTHEAST WASHINGTON

CITY           SKY/WX    TMP DP  RH WIND       PRES   REMARKS
SPOKANE GEIGER MOSUNNY   92  33  12 W7        29.97F TC  33
6HR MIN TEMP:  83; 6HR MAX TEMP:  93;

SPOKANE FELTS  SUNNY     92  34  13 SW7       29.95F TC  33
6HR MIN TEMP:  82; 6HR MAX TEMP:  93;

FAIRCHILD AFB  SUNNY     89  32  13 S3        29.97F TC  32
6HR MIN TEMP:  81; 6HR MAX TEMP:  90;

COEURDALENE,ID SUNNY     89  38  16 NW9       29.98F TC  32
6HR MIN TEMP:  80; 6HR MAX TEMP:  90;

DEER PARK      SUNNY     91  35  13 SW5       29.97F TC  33
6HR MIN TEMP:  81; 6HR MAX TEMP:  92;

$$

WAZ029>033-160100-
SOUTHEAST WASHINGTON

CITY           SKY/WX    TMP DP  RH WIND       PRES   REMARKS
PULLMAN        SUNNY     88  31  13 VRB6      30.01F TC  31
6HR MIN TEMP:  81; 6HR MAX TEMP:  89;

LEWISTON, ID   SUNNY     98  31   9 NW14      29.90F HX  92  TC  37
6HR MIN TEMP:  89; 6HR MAX TEMP:  99;

WALLA WALLA    SUNNY     94  37  13 SW13G21   29.91F TC  34
6HR MIN TEMP:  85; 6HR MAX TEMP:  96;

PENDLETON, OR  SUNNY     97  34  11 NW12      29.93F HX  91  TC  36
6HR MIN TEMP:  87; 6HR MAX TEMP:  98;

$$



 

View Past Reports for Seattle, WA.

Products Courtesy of NOAA-NWS
NWS Information Parsing Script by Ken True at Saratoga Weather - Script by SE Lincoln Weather.